Weather Service Report


852 
ASUS43 KOAX 231010
RWRNE 

WEATHER ROUNDUP FOR NEBRASKA
NATIONAL WEATHER SERVICE OMAHA NE
500 AM CDT SAT AUG 23 2014

NOTES: SATELLITE DATA IS BEING USED TO AUGMENT CLOUD COVER ABOVE
       12000 FEET.
       "FAIR" INDICATES FEW OR NO CLOUDS BELOW 12,000 FEET WITH NO
       SIGNIFICANT WEATHER AND/OR OBSTRUCTIONS TO VISIBILITY.

  * THESE STATIONS DO NOT REPORT WEATHER SUCH AS RAIN...SNOW OR FOG.
   
NEZ001>004-019>022-054>056-231100-
NEBRASKA PANHANDLE
  
CITY           SKY/WX    TMP DP  RH WIND       PRES   REMARKS
SCOTTSBLUFF    CLOUDY    61  61 100 CALM      29.95F                  
ALLIANCE       RAIN      61  59  93 E7        29.95S FOG              
CHADRON        LGT RAIN  64  62  93 S3        29.93F                  
KIMBALL        CLOUDY    60  59  97 CALM      29.97F                  
SIDNEY         CLOUDY    62  59  90 E3        29.97F                  
$$
 
NEZ057>060-069>072-079>082-231100-
SOUTHWEST NEBRASKA
  
CITY           SKY/WX    TMP DP  RH WIND       PRES   REMARKS
NORTH PLATTE   MOCLDY    65  64  97 NW3       29.90R                  
IMPERIAL       MOCLDY    65  63  93 SW6       29.93R                  
LEXINGTON      MOCLDY    67  65  96 SE9       29.87S                  
MCCOOK         PTCLDY    67  64  90 SE5       29.89R                  
OGALLALA       CLOUDY    63  62  97 W3        29.91S                  
$$
 
NEZ005>010-023>029-035>040-094-231100-
NORTH CENTRAL NEBRASKA
  
CITY           SKY/WX    TMP DP  RH WIND       PRES   REMARKS
VALENTINE      CLOUDY    66  65  96 CALM      29.87F                  
AINSWORTH      CLOUDY    67  66  97 CALM      29.87F                  
BROKEN BOW     CLOUDY    66  66 100 CALM      29.86R                  
O'NEILL        CLOUDY    67  67  99 N6        29.83F                  
ORD            CLOUDY    67  65  93 SE13      29.85R                  
THEDFORD       CLOUDY    66  65  97 W6        29.89S                  
$$
 
NEZ041-046>049-061>064-073>077-083>087-231100-
SOUTH CENTRAL NEBRASKA
  
CITY           SKY/WX    TMP DP  RH WIND       PRES   REMARKS
GRAND ISLAND   MOCLDY    67  65  93 E8        29.87F                  
AURORA         MOCLDY    68  68 100 E8        29.86F                  
HASTINGS       MOCLDY    67  64  90 E10       29.87F                  
HEBRON         PTCLDY    70  65  85 E8        29.88F                  
HOLDREGE       MOCLDY    67  65  94 E8        29.88S                  
KEARNEY *      MOCLDY    66  64  94 E7        29.89S                  
YORK           MOCLDY    68 N/A N/A E5        29.87F                  
$$
 
NEZ011>018-030>034-042>045-231100-
NORTHEAST NEBRASKA
  
CITY           SKY/WX    TMP DP  RH WIND       PRES   REMARKS
NORFOLK        CLOUDY    68  66  93 E3        29.86F                  
ALBION         CLOUDY    66  65  94 SE5       29.87F                  
BLAIR          CLOUDY    70  68  93 NE10      29.91F                  
FREMONT        CLOUDY    70  68  93 E12       29.91F                  
TEKAMAH        LGT RAIN  70  68  93 S15       29.99R                  
WAYNE          CLOUDY    69  67  95 E7        29.87F                  
$$

NEZ050>053-065>068-078-088>093-231100-
SOUTHEAST NEBRASKA
  
CITY           SKY/WX    TMP DP  RH WIND       PRES   REMARKS
LINCOLN        CLOUDY    70  68  93 E7        29.89F                  
OMAHA EPPLEY   CLOUDY    72  68  87 N10       29.91F                  
BEATRICE       MOCLDY    70  68  93 E13G18    29.89F                  
FALLS CITY     MOCLDY    74  71  91 N7        29.90S                  
NEBRASKA CITY  CLOUDY    70  70 100 NE7       29.93S                  
PLATTSMOUTH    CLOUDY    70  68  92 N5        29.91F                  
$$

NEZ044-045-051>053-067-231100-
OMAHA AREA
  
CITY           SKY/WX    TMP DP  RH WIND       PRES   REMARKS
OMAHA EPPLEY   CLOUDY    72  68  87 N10       29.91F                  
BLAIR          CLOUDY    70  68  93 NE10      29.91F                  
FREMONT        CLOUDY    70  68  93 E12       29.91F                  
MILLARD        CLOUDY    71  69  93 NE3       29.91F                  
OFFUTT AFB     CLOUDY    71  71 100 N7        29.90F                  
PLATTSMOUTH    CLOUDY    70  68  92 N5        29.91F                  
WAHOO          FAIR      69  66  90 E10       29.91F                  
$$

Return to Home page


Western Regional Climate Center, wrcc@dri.edu